[[{"header":{"parameterUnit":"m.s-1","parameterCategory":1,"la1":30.2991,"la2":30.254,"lo1":-89.0895,"lo2":-89.0444,"dy":0.0017,"dx":0.0017,"nx":28,"ny":28,"refTime":"2023-10-29T03:00:00:Z","depth":0,"parameterNumber":2,"parameterNumberName":"U-component_of_WINDS"},"data":[0,0,0,0,0,0,0,0,0,0,0,0,0,0,0,0,0,0,0,0,0,0,0,0,0,0,0,0,0,0,0,0,0,0,0,0,0,0,0,0,0,0,0,0,0,0,0,0,0,0,0,0,0,0,0,0,0,0,-3.884,-3.884,0,-3.8841,-3.8841,-3.8841,-3.874,-3.8737,-3.8735,-3.8732,-3.8732,-3.8735,-3.8737,0,0,0,0,0,0,0,0,0,0,0,0,0,-3.8751,-3.8753,-3.884,-3.884,-3.884,-3.8841,-3.8841,-3.8841,-3.874,-3.8737,-3.8734,-3.8731,-3.8732,-3.8735,-3.8738,0,0,0,0,0,0,0,0,0,0,0,0,0,-3.8775,-3.8754,-3.884,-3.879,-3.8785,-3.8841,-3.8841,-3.8841,-3.8741,-3.8737,-3.8733,-3.8729,-3.8731,-3.8734,-3.8738,-3.8841,0,0,-3.875,-3.8751,0,0,0,0,0,0,0,0,-3.8773,-3.8778,-3.8797,-3.8793,-3.8788,-3.8786,-3.881,-3.8841,-3.8742,-3.8758,-3.8732,-3.8727,-3.8754,-3.8755,-3.8764,-3.8841,-3.8841,-3.875,-3.8752,-3.8754,-3.8755,0,0,0,0,0,0,0,-3.8772,-3.8777,-3.884,-3.8797,-3.8792,-3.8768,-3.8767,-3.8815,-3.8778,-3.8756,-3.8749,-3.875,-3.875,-3.8761,-3.8763,-3.8841,-3.875,-3.8753,-3.8755,-3.8757,-3.9006,-3.901,0,0,0,0,0,0,-3.8777,-3.8777,-3.884,-3.884,-3.8771,-3.8772,-3.8771,-3.8791,-3.8777,-3.8771,-3.8754,-3.8746,-3.8756,-3.8759,-3.8763,-3.8883,-3.8754,-3.8757,-3.8759,-3.9002,-3.9007,-3.9012,0,0,0,0,0,0,-3.8775,-3.8784,-3.884,-3.8806,-3.8812,-3.8778,-3.8801,-3.8793,-3.8803,-3.8776,-3.8768,-3.8771,-3.8753,-3.8758,-3.8823,-3.8882,-3.8759,-3.8762,-3.8996,-3.9003,-3.9009,-3.9125,0,0,0,0,0,0,-3.8773,-3.8784,-3.8822,-3.8808,-3.8814,-3.89,-3.8805,-3.8796,-3.881,-3.88,-3.879,-3.8785,-3.8751,-3.8818,-3.8827,-3.8885,-3.8765,-3.8991,-3.8999,-3.9007,-3.9116,-3.9135,-3.9151,0,0,0,0,0,-3.8771,-3.8854,-3.8824,-3.8833,-3.8861,-3.8903,-3.8907,-3.8866,-3.8815,-3.8854,-3.8837,-3.8785,-3.8875,-3.8826,-3.8835,-3.8895,-3.8987,-3.8997,-3.9007,-3.9108,-3.9131,-3.9151,0,0,0,0,0,0,-3.8874,-3.8851,-3.8818,-3.8899,-3.8904,-3.8886,-3.8933,-3.8892,-3.8911,-3.89,-3.8849,-3.8848,-3.8921,-3.8915,-3.886,-3.8996,-3.8922,-3.8934,-3.8996,-3.9018,-3.9035,-3.9034,-3.8768,0,0,0,0,0,-3.8906,-3.8943,-3.8921,-3.8995,-3.8999,-3.8967,-3.8983,-3.8952,-3.8955,-3.8956,-3.8944,-3.8948,-3.8978,-3.8998,-3.9023,-3.9116,-3.9113,-3.9162,-3.918,-3.9195,-3.9205,-3.9254,-3.9276,-3.9044,-3.9044,-3.9044,0,0,-3.8973,-3.8965,-3.8991,-3.9015,-3.9015,-3.9055,-3.8969,-3.9013,-3.9041,-3.8963,-3.9023,-3.9016,-3.9018,-3.9097,-3.9132,-3.9094,-3.9269,-3.9207,-3.9219,-3.9221,-3.9267,-3.9289,-3.9308,-3.905,-3.9049,-3.9048,0,0,-3.9114,-3.9112,-3.9174,-3.9177,-3.9179,-3.9158,-3.9173,-3.9163,-3.9154,-3.9215,-3.9158,-3.9192,-3.9243,-3.9247,-3.9256,-3.9405,-3.9358,-3.9415,-3.9506,-3.9555,-3.9573,-3.9589,-3.9641,-3.9661,-3.9426,-3.9426,-3.9426,0,-3.9196,-3.9252,-3.9211,-3.926,-3.9273,-3.9206,-3.9269,-3.9274,-3.9284,-3.9295,-3.9253,-3.9319,-3.9315,-3.9395,-3.9432,-3.9442,-3.9458,-3.9414,-3.9574,-3.9589,-3.9604,-3.9653,-3.9673,-3.9433,-3.9432,-3.9431,-3.9431,0,-3.9353,-3.9394,-3.9444,-3.9457,-3.9476,-3.9532,-3.9499,-3.9524,-3.9493,-3.9477,-3.9541,-3.9535,-3.9559,-3.9577,-3.9546,-3.9654,-3.963,-3.9583,-3.9507,-3.9633,-3.9679,-3.9697,-3.9443,-3.944,-3.9438,-3.9437,0,0,-3.9554,-3.9547,-3.9566,-3.9572,-3.9572,-3.9603,-3.9657,-3.9682,-3.9704,-3.9715,-3.9759,-3.9807,-3.9763,-3.9774,-3.9744,-3.9787,-3.9906,-3.9734,-3.9733,-3.9765,-4.0024,-4.0059,-4.0081,-3.9876,-3.988,-3.9883,-4.0024,0,-3.969,-3.9781,-3.9747,-3.9841,-3.9879,-3.9819,-3.9866,-3.9872,-3.9859,-3.989,-3.9875,-3.991,-3.985,-3.9856,-3.9897,-3.9883,-3.9957,-3.9872,-3.9916,-3.9918,-3.9914,-4.0105,-4.0141,-4.0274,-4.0041,-4.0044,-4.0046,0,-3.9859,-3.9879,-3.9977,-3.9973,-3.9987,-4.003,-4.0052,-4.0082,-4.0088,-4.0076,-4.0091,-4.0053,-4.0106,-4.0034,-4.0108,-4.0051,-4.0068,-4.0064,-4.0069,-4.0068,-3.9988,-4.0108,-4.0315,-4.0335,-4.0074,-4.0072,-4.007,0,-3.9994,-4.0046,-4.0111,-4.0119,-4.0116,-4.0148,-4.0149,-4.0151,-4.0169,-4.0189,-4.02,-4.0226,-4.0239,-4.026,-4.023,-4.0181,-4.0308,-4.0233,-4.0299,-4.03,-4.0325,-4.0324,-4.0536,-4.0341,-4.0341,-4.034,-4.034,0,-4.0147,-4.0209,-4.0172,-4.0212,-4.0281,-4.0243,-4.0312,-4.0306,-4.031,-4.0348,-4.0299,-4.0336,-4.0296,-4.0329,-4.0307,-4.0371,-4.0378,-4.037,-4.0362,-4.0373,-4.0374,-4.038,-4.0369,-4.0346,-4.0344,-4.0343,-4.0342,0,-4.0308,-4.0286,-4.0353,-4.0347,-4.0347,-4.0398,-4.0393,-4.043,-4.0416,-4.0465,-4.0475,-4.0453,-4.049,-4.0464,-4.0501,-4.0486,-4.057,-4.0551,-4.0568,-4.0562,-4.0629,-4.0622,-4.085,-4.0878,-4.0668,-4.067,-4.0671,0,-4.0405,-4.0452,-4.0452,-4.0475,-4.0479,-4.0517,-4.0536,-4.0502,-4.0524,-4.0538,-4.0574,-4.0608,-4.0632,-4.0695,-4.0682,-4.0711,-4.0691,-4.077,-4.0695,-4.0704,-4.069,-4.0687,-4.0692,-4.0783,-4.0786,-4.0788,-4.0789,0,-4.0581,-4.0569,-4.0598,-4.0626,-4.0651,-4.067,-4.0685,-4.0707,-4.0674,-4.0701,-4.074,-4.076,-4.08,-4.0834,-4.0858,-4.0859,-4.0819,-4.0814,-4.083,-4.0839,-4.0847,-4.0843,-4.0607,-4.0808,-4.0806,-4.0804,-4.0803,-4.0803,-4.0711,-4.0751,-4.0758,-4.0794,-4.0803,-4.082,-4.0855,-4.0847,-4.0879,-4.0909,-4.0888,-4.0934,-4.0943,-4.0972,-4.0978,-4.1014,-4.0982,-4.1006,-4.1012,-4.1017,-4.1026,-4.0844,-4.1019,-4.1018,-4.1018,-4.1017,-4.1017,0,-4.0883,-4.0886,-4.092,-4.0944,-4.0973,-4.0936,-4.0953,-4.0979,-4.102,-4.1032,-4.1059,-4.1105,-4.1139,-4.1131,-4.1162,-4.1192,-4.1175,-4.1201,-4.1197,-4.1198,-4.1054,-4.1036,-4.1215,-4.1215,-4.1215,-4.1215,-4.1215,-4.1215,-4.0975,-4.104,-4.103,-4.11,-4.1102,-4.1148,-4.1161,-4.1177,-4.1186,-4.124,-4.1269,-4.1264,-4.1268,-4.13,-4.133,-4.1327,-4.134,-4.1373,-4.1363,-4.1228,-4.1208,-4.1189,-4.1172,-4.1377,-4.1377,-4.1504,-4.1505,-4.1506]},{"header":{"parameterUnit":"m.s-1","parameterCategory":1,"la1":30.2991,"la2":30.254,"lo1":-89.0895,"lo2":-89.0444,"dy":0.0017,"dx":0.0017,"nx":28,"ny":28,"refTime":"2023-10-29T03:00:00:Z","depth":0,"parameterNumber":3,"parameterNumberName":"V-component_of_WINDS"},"data":[0,0,0,0,0,0,0,0,0,0,0,0,0,0,0,0,0,0,0,0,0,0,0,0,0,0,0,0,0,0,0,0,0,0,0,0,0,0,0,0,0,0,0,0,0,0,0,0,0,0,0,0,0,0,0,0,0,0,1.3322,1.3322,0,1.3391,1.3392,1.3393,1.3403,1.3403,1.3402,1.3402,1.3469,1.3472,1.3474,0,0,0,0,0,0,0,0,0,0,0,0,0,1.3198,1.32,1.3322,1.3322,1.3323,1.3391,1.3392,1.3393,1.3403,1.3403,1.3402,1.3401,1.3469,1.3471,1.3474,0,0,0,0,0,0,0,0,0,0,0,0,0,1.3258,1.32,1.3321,1.3337,1.3339,1.3391,1.3392,1.3393,1.3404,1.3403,1.3402,1.3401,1.3468,1.3471,1.3475,1.3515,0,0,1.3485,1.3487,0,0,0,0,0,0,0,0,1.3254,1.3262,1.3334,1.3336,1.3338,1.3388,1.3373,1.3434,1.3404,1.3379,1.3401,1.34,1.3443,1.3448,1.3463,1.3518,1.3521,1.3486,1.3488,1.3489,1.349,0,0,0,0,0,0,0,1.325,1.3259,1.3349,1.3335,1.3338,1.334,1.3348,1.3385,1.3415,1.3381,1.3382,1.339,1.3444,1.346,1.3465,1.3522,1.3486,1.3489,1.3491,1.3492,1.3619,1.362,0,0,0,0,0,0,1.3243,1.3256,1.3347,1.3351,1.3293,1.3343,1.3352,1.3373,1.3415,1.342,1.3391,1.339,1.3454,1.3461,1.3467,1.352,1.3489,1.3493,1.3495,1.3618,1.3619,1.362,0,0,0,0,0,0,1.3241,1.3251,1.3344,1.3304,1.3316,1.3346,1.337,1.3375,1.3391,1.3422,1.3427,1.3402,1.3454,1.3462,1.3505,1.3523,1.3494,1.3498,1.3616,1.3618,1.362,1.3625,0,0,0,0,0,0,1.3237,1.325,1.3265,1.3304,1.3318,1.338,1.3371,1.3377,1.3397,1.3397,1.3434,1.3439,1.3454,1.3499,1.3508,1.3527,1.35,1.3615,1.3617,1.3619,1.3623,1.3626,1.3629,0,0,0,0,0,1.3232,1.3262,1.3266,1.3277,1.3338,1.3381,1.3389,1.3406,1.3399,1.3415,1.3436,1.3438,1.352,1.3503,1.3513,1.3534,1.3614,1.3616,1.3619,1.3622,1.3626,1.3629,0,0,0,0,0,0,1.3222,1.3267,1.3272,1.3315,1.3345,1.3382,1.3403,1.3409,1.344,1.3438,1.3458,1.3466,1.3508,1.3525,1.3506,1.3578,1.3566,1.3571,1.3564,1.3569,1.3572,1.3566,1.3503,0,0,0,0,0,1.3226,1.3257,1.3295,1.3329,1.3344,1.3371,1.339,1.3402,1.3432,1.3444,1.3468,1.3497,1.353,1.355,1.3581,1.3626,1.3636,1.3646,1.3649,1.3651,1.3655,1.3684,1.3689,1.3629,1.3629,1.3629,0,0,1.3231,1.326,1.3278,1.3328,1.3352,1.3385,1.3381,1.3415,1.344,1.3449,1.3491,1.351,1.3544,1.3589,1.3609,1.3604,1.3674,1.3655,1.3657,1.3659,1.3687,1.3693,1.3698,1.3631,1.3631,1.3631,0,0,1.3259,1.3284,1.3317,1.3342,1.338,1.3399,1.3407,1.3445,1.3459,1.3502,1.3511,1.3541,1.3596,1.3621,1.364,1.3684,1.3688,1.3694,1.371,1.3738,1.3742,1.3747,1.3764,1.377,1.3698,1.3698,1.3698,0,1.3261,1.3312,1.3333,1.3368,1.3391,1.3404,1.3439,1.3462,1.3507,1.3522,1.3517,1.3589,1.3612,1.3665,1.3676,1.3691,1.3702,1.3689,1.374,1.3745,1.3749,1.3766,1.3772,1.3698,1.3698,1.3698,1.3698,0,1.3314,1.3349,1.3372,1.3418,1.3444,1.3478,1.3505,1.3528,1.3539,1.3559,1.3605,1.3634,1.3674,1.3687,1.3696,1.3742,1.3738,1.3736,1.3725,1.3755,1.3771,1.3778,1.3699,1.3699,1.3699,1.3699,0,0,1.3333,1.3395,1.3403,1.3426,1.3471,1.3499,1.3535,1.3576,1.3597,1.3629,1.3661,1.371,1.371,1.3733,1.3746,1.377,1.3806,1.3765,1.3766,1.3773,1.3861,1.3862,1.3869,1.381,1.3811,1.3812,1.3859,0,1.3367,1.3434,1.3456,1.3511,1.3546,1.3562,1.3594,1.3625,1.3646,1.3679,1.3701,1.3737,1.3733,1.3747,1.3772,1.3796,1.3824,1.3793,1.384,1.3841,1.3831,1.3877,1.3878,1.392,1.3865,1.3866,1.3867,0,1.3414,1.3451,1.351,1.3555,1.3571,1.3599,1.3641,1.3671,1.3709,1.3723,1.3751,1.3763,1.3804,1.3792,1.3848,1.3827,1.3848,1.3863,1.3866,1.387,1.3855,1.3884,1.3934,1.3941,1.3877,1.3876,1.3875,0,1.3424,1.3488,1.3533,1.3552,1.3605,1.3626,1.3649,1.3685,1.371,1.3747,1.3763,1.3803,1.3825,1.3856,1.388,1.3869,1.3936,1.3924,1.3949,1.3948,1.3961,1.3959,1.4015,1.3974,1.3974,1.3974,1.3974,0,1.346,1.3496,1.3539,1.3566,1.3608,1.3635,1.3676,1.37,1.3733,1.3767,1.3782,1.3813,1.3842,1.3877,1.3896,1.3942,1.3951,1.3964,1.3968,1.3963,1.3961,1.3976,1.3974,1.3976,1.3975,1.3975,1.3975,0,1.3477,1.3507,1.3557,1.3606,1.3619,1.3648,1.3689,1.3717,1.3741,1.3783,1.3794,1.3831,1.3873,1.3901,1.3954,1.3967,1.4017,1.4021,1.4005,1.4007,1.403,1.4028,1.4098,1.4109,1.406,1.406,1.4061,0,1.3497,1.3526,1.3579,1.3603,1.3627,1.3666,1.3692,1.3721,1.3748,1.3796,1.3819,1.3863,1.39,1.3968,1.3999,1.4041,1.4046,1.4068,1.4052,1.4046,1.4048,1.4046,1.405,1.4069,1.407,1.407,1.407,0,1.353,1.3545,1.3583,1.3629,1.3661,1.3697,1.3733,1.3752,1.3788,1.3818,1.3863,1.3892,1.395,1.3994,1.404,1.4064,1.4074,1.4076,1.4084,1.4078,1.4068,1.4075,1.4013,1.4073,1.4073,1.4073,1.4073,1.4073,1.355,1.3578,1.3621,1.3664,1.3696,1.3731,1.3761,1.379,1.3829,1.3879,1.3894,1.3942,1.3983,1.4046,1.4071,1.411,1.4107,1.4118,1.4121,1.4123,1.4124,1.4063,1.4118,1.4118,1.4118,1.4118,1.4118,0,1.3585,1.3615,1.3655,1.3708,1.3743,1.3752,1.3794,1.3822,1.3865,1.3903,1.3941,1.3995,1.4039,1.4076,1.4122,1.4146,1.4152,1.4157,1.4156,1.4162,1.4123,1.4112,1.4152,1.4152,1.4152,1.4152,1.4152,1.4152,1.3607,1.3656,1.3677,1.3743,1.3773,1.3821,1.3845,1.3878,1.3909,1.3969,1.4008,1.4032,1.4071,1.4121,1.4163,1.4173,1.4189,1.4194,1.4205,1.4168,1.4164,1.416,1.415,1.4197,1.4197,1.424,1.4241,1.4241]}]]